Regional Weather Roundup
Issued by NWS

Home | Current Version | Previous Version | Text Only | Print | Product List | Glossary On
Versions: 1 2 3 4 5 6 7 8 9 10 11 12 13 14 15 16 17 18 19 20 21 22 23 24 25 26 27 28 29 30 31 32 33 34 35 36 37 38 39 40 41 42 43 44 45 46 47 48 49 50
000
ASUS44 KFWD 050703
RWRTX
NORTH TEXAS HOURLY WEATHER ROUNDUP
NATIONAL WEATHER SERVICE FORT WORTH TX
100 AM CST THU MAR 05 2015

NOTE: "FAIR" INDICATES FEW OR NO CLOUDS BELOW 12,000 FEET WITH NO
SIGNIFICANT WEATHER AND/OR OBSTRUCTIONS TO VISIBILITY.

TXZ118-119-050800-
DALLAS/FORT WORTH METROPLEX

CITY           SKY/WX    TMP DP  RH WIND       PRES   REMARKS
DFW AIRPORT    SNOW      26  25  96 N18       30.35R VSB 1/4 WCI  13
DALLAS LOVE    HVY SNOW  27  25  92 N20G26    30.36R VSB 1/4 WCI  13
FTW MEACHAM    LGT SNOW  27  24  89 N17       30.38R VSB 1   WCI  14
DAL-EXECUTIVE  HVY SNOW  27  25  92 N21       30.33R VSB 1/4 WCI  13
FTW-ALLIANCE   LGT SNOW  26  23  88 N18       30.38R VSB 3/4 WCI  13
FTW-SPINKS     HVY RAIN  27  26  94 N16G23    30.37R WCI  15
ARLINGTON      SNOW      28  24  85 N17       30.35S VSB 1/2 WCI  16
GRAND PRAIRIE  CLOUDY    28  28 100 N10G20    30.36S VSB 1/2 WCI  18
ADDISON        LGT SNOW  28  28 100 N16       30.38S VSB 3/4 WCI  16
MESQUITE       CLOUDY    28  27  96 N14G24    30.34R VSB 1/2 WCI  16
LANCASTER      LGT SNOW  28  25  90 N17G24    30.35R VSB 3/4 WCI  15
$$

TXZ091>094-102>105-117-120-121-131>134-050800-
NORTH CENTRAL TEXAS

CITY           SKY/WX    TMP DP  RH WIND       PRES   REMARKS
SHRMAN/DENISON   N/A     27  26  97 N15G23    30.40R WCI  15
GAINESVILLE    CLOUDY    25  21  86 N14       30.43R WCI  13
BOWIE          CLOUDY    24  22  91 N14       30.40S WCI  12
BRIDGEPORT     CLOUDY    26  24  94 N10       30.44R WCI  16
DECATUR        CLOUDY    25  23  91 N12G20    30.39R WCI  14
DENTON         LGT SNOW  26  23  88 N17       30.40R FOG     WCI  13
MCKINNEY       FOG       26  24  92 N17       30.37R VSB 1/2 WCI  13
GREENVILLE     SNOW      28  28 100 N12G18    30.35R VSB 1/2 WCI  18
TERRELL        SNOW      30  26  85 N16G25    30.33R VSB 1/2 WCI  19
WAXAHACHIE     LGT SNOW  28  28 100 N16       30.33R VSB 3/4 WCI  15
CLEBURNE       LGT SNOW  27  27 100 CALM      30.34R VSB 1
GRANBURY       LGT SNOW  28  26  91 NW13G18   30.40R WCI  18
$$

TXZ083>090-098>101-113>116-127>130-139>142-154-155-050800-
WESTERN NORTH TEXAS

CITY           SKY/WX    TMP DP  RH WIND       PRES   REMARKS
WICHITA FALLS  CLOUDY    25  20  81 N9        30.46R WCI  15
WF-KICKAPOO    CLOUDY    27  23  83 N13       30.47S WCI  16
VERNON         CLOUDY    26  19  72 NW7       30.49S WCI  19
ABILENE        CLOUDY    23  20  88 N18       30.41R WCI   9
BRECKENRIDGE   CLOUDY    26  23  86 N13G23    30.41F WCI  15
GRAHAM         CLOUDY    25  23  93 N13G20    30.42R WCI  13
MINERAL WELLS  LGT SNOW  26  21  81 N18G25    30.39R WCI  13
STEPHENVILLE   CLOUDY    26  23  89 N16G28    30.37R WCI  13
COMANCHE       CLOUDY    26  26  98 N20G29    30.37R WCI  12
BROWNWOOD      CLOUDY    27  23  86 N18G25    30.37R WCI  13
COLEMAN        CLOUDY    26  23  91 N23G31    30.35R WCI  11
BRADY          CLOUDY    27  25  93 N18       30.32R WCI  13
$$

TXZ143>147-156>162-174-175-050800-
CENTRAL TEXAS

CITY           SKY/WX    TMP DP  RH WIND       PRES   REMARKS
WACO           FRZ RAIN  32  29  88 N23G32    30.30R FOG     WCI  19
WACO-MCGREGOR  CLOUDY    32  27  80 N20G30    30.30R WCI  20
HILLSBORO      LGT SNOW  30  28  94 N17G26    30.32R WCI  18
CORSICANA      FRZ RAIN  32  29  88 MISG      30.30R
MEXIA          LGT SNOW  31  29  93 MISG      30.25R
HEARNE         LGT RAIN  33  32  96 N21       30.23F WCI  21
CAMERON        MIX PCPN  33  32  95 N21G28    30.28R WCI  21
TEMPLE         CLOUDY    32  27  80 N23G32    30.23R WCI  19
KILLEEN        NOT AVBL
KILLEEN-SKYLRK CLOUDY    34  25  69 N24G31    30.22F WCI  21
FORT HOOD      FRZ RAIN  32  31  97 N17       30.24F VSB 1   WCI  21
GATESVILLE     CLOUDY    32  32 100 CALM      30.32R FOG
HAMILTON       FLURRIES  28  28  96 N24G33    30.31R WCI  14
LAMPASAS       FLURRIES  31  30  95 N14       30.29R WCI  21
$$

TXZ095>097-106>112-122>126-135>138-148>153-164>167-050800-
EAST TEXAS

CITY           SKY/WX    TMP DP  RH WIND       PRES   REMARKS
PARIS          CLOUDY    27  23  86 CALM      30.32R
SULPHUR SPRNGS LGT SNOW  30  29  97 N13G18    30.34R WCI  20
MOUNT PLEASANT CLOUDY    33  32  99 N10G16    30.29R WCI  24
GILMER         LGT RAIN  33  32  96 N12G21    30.22F WCI  24
MINEOLA        MIX PCPN  32  32 100 CALM      30.31R
TYLER          RAIN      33  31  92 N15G24    30.23R WCI  23
LONGVIEW       LGT RAIN  36  32  85 N13G21    30.21R WCI  27
MARSHALL       CLOUDY    36  33  91 N17G26    30.25R WCI  25
ATHENS         MIX PCPN  32  30  93 N16G22    30.24F WCI  21
PALESTINE      MIX PCPN  35  34  96 N13       30.22F WCI  26
JACKSONVILLE   LGT RAIN  35  35  99 N8G17     30.21R VSB 1   WCI  29
HENDERSON      CLOUDY    36  35  96 N17G25    30.20S THUNDER WCI  25
NACOGDOCHES    CLOUDY    34  34 100 N8G23     30.17R WCI  27
LUFKIN         LGT RAIN  41  37  86 N12G20    30.14R WCI  34
$$

SUPPLEMENTAL OBSERVATIONS (CENTRAL)

CITY           SKY/WX    TMP DP  RH WIND       PRES   REMARKS
$$

SUPPLEMENTAL OBSERVATIONS (WEST)

CITY           SKY/WX    TMP DP  RH WIND       PRES   REMARKS
$$

SUPPLEMENTAL OBSERVATIONS (EAST)

CITY           SKY/WX    TMP DP  RH WIND       PRES   REMARKS
$$

SUPPLEMENTAL OBSERVATIONS ARE A COLLECTION OF AUTOMATED INSTRUMENTS
THAT ARE MAINTAINED BY A VARIETY OF FEDERAL AND STATE AGENCIES.
CERTAIN ELEMENTS...SUCH AS HUMIDITY VALUES AND SUSTAINED WIND
SPEEDS...MAY BE APPROXIMATED.




USA.gov is the U.S. government's official web portal to all federal, state and local government web resources and services.